Location: Christianberg
(48.9086°N, 14.0209°E)
Time: 22:52:57
(UTC+00:00)

CZ-4 R/B - Pass Details

Date: 20 June 2021
Orbit: 682 x 752 km, 98.5° (Epoch: 04 August)

Event Time Altitude Azimuth Distance (km) Brightness Sun altitude
Rises 00:43:45 0° 10° (N) 3,058 8.8 -14.4°
Reaches altitude 10° 00:46:03 10° 5° (N) 2,140 7.5 -14.3°
Maximum altitude 00:50:32 49° 291° (WNW) 889 4.3 -13.9°
Enters shadow 00:53:35 20° 224° (SW) 1,597 5.1 -13.7°
